sat.trackr.live / text

‹ back to catalog

STARLINK-31460

NORAD 59008 · 2024-036L

PAYLOAD ACTIVE UNKNOWN

§ Identity

Operator
Country
US
Launch date
2024-02-23
Launch site
AFWTR
Launch vehicle
Mass (kg)
RCS (m²)

Purposes: comms

External: N2YO · Heavens-Above · Gunter

§ Orbital elements

Epoch: 2026-05-25T02:57:34.079040Z

Period
94.11 min
Inclination
53.1600°
Eccentricity
0.0001167
Mean motion
15.30190995 rev/d
Perigee alt
474.4 km
Apogee alt
476.0 km
Semi-major
6,853.4 km
B*
-1.6914e-6
RAAN
83.2410°
Arg perigee
90.4061°
Mean anomaly
269.7073°
Rev number
12,702

§ Raw data

STARLINK-314601 59008U 24036L   26145.12331110 -.00000409  00000+0 -16914-5 0  99972 59008  53.1600  83.2410 0001167  90.4061 269.7073 15.30190995127020

JSON: /api/v1/satellites/59008 · /tle

For live sub-satellite position, see the globe view (requires WebGL).

§ Visibility from observer

Set your observer location to see the next 7 days of passes ≥ 10°. The values pass through the URL so the page stays shareable.

No JS? Fill the form by hand. The geolocation button needs JavaScript.